Date,TemperatureHighF,TemperatureAvgF,TemperatureLowF,DewpointHighF,DewpointAvgF,DewpointLowF,HumidityHigh,HumidityAvg,HumidityLow,PressureMaxIn,PressureMinIn,WindSpeedMaxMPH,WindSpeedAvgMPH,GustSpeedMaxMPH,PrecipitationSumIn
2013-1-17,33.3,23.6,15.0,26.9,10.3,0.9,77,57,50,30.11,29.93,6,4,0,0.01
2013-1-18,16.0,11.4,7.3,0.5,-3.2,-8.9,63,52,38,30.30,30.11,5,4,0,0.00
2013-1-29,35.8,30.7,29.3,35.0,28.6,26.6,97,92,83,30.20,30.13,1,0,1,0.00
2013-1-30,50.5,44.2,36.2,50.0,43.6,35.2,98,98,96,30.13,29.44,5,2,11,0.00
2013-1-31,53.7,51.9,50.1,53.1,51.4,49.6,98,98,97,29.42,28.96,9,6,14,0.00
2013-2-1,27.8,23.4,16.3,10.5,6.0,3.3,58,47,36,30.01,29.68,8,3,19,0.00
2013-2-2,25.6,19.8,13.6,19.5,8.4,1.2,87,62,45,30.19,30.01,4,1,11,0.00
2013-2-3,26.5,23.9,21.3,19.6,17.5,14.6,92,77,63,30.03,29.66,6,3,15,0.00
2013-2-4,27.1,22.7,16.8,15.3,8.7,-0.1,75,56,35,29.85,29.61,8,3,22,0.00
2013-2-5,25.8,16.6,10.3,9.3,1.5,-3.1,71,52,31,30.01,29.85,3,1,10,0.00
2013-2-6,36.0,24.6,16.5,25.0,14.0,-4.7,85,66,33,30.25,29.91,6,2,20,0.00
2013-2-7,19.2,13.4,10.0,-1.7,-6.8,-13.4,54,40,24,30.57,30.26,6,3,18,0.00
2013-2-8,21.5,14.3,10.8,19.8,9.7,-2.9,93,83,50,30.56,29.84,13,5,28,0.00
2013-2-9,18.7,13.6,9.9,13.4,10.1,7.6,91,86,71,30.07,29.62,17,12,37,0.00
2013-2-10,35.9,22.3,12.3,15.1,7.0,2.8,81,54,28,30.33,30.08,8,2,21,0.00
2013-2-11,41.8,28.8,14.1,41.2,25.7,8.8,98,88,66,30.33,29.54,3,0,6,0.00
2013-2-12,43.7,36.6,31.5,32.9,30.8,28.4,97,81,62,29.75,29.49,7,3,18,0.00
2013-2-13,41.9,35.0,31.0,29.1,26.3,23.1,82,71,49,29.79,29.71,5,2,12,0.00
2013-2-14,40.3,33.0,26.1,24.0,21.6,18.1,85,64,43,29.98,29.69,6,2,15,0.00
2013-2-15,44.6,35.8,25.2,38.1,32.0,22.0,96,86,74,29.98,29.89,6,1,19,0.00
2013-2-16,34.7,32.1,25.0,33.3,30.3,22.1,97,93,86,29.91,29.73,8,3,17,0.00
2013-2-17,25.8,21.6,18.4,21.9,13.9,5.7,91,73,55,29.73,29.12,14,8,34,0.00
2013-2-18,30.2,21.8,14.3,9.1,5.0,0.1,60,49,37,30.01,29.42,10,6,27,0.00
2013-2-19,41.6,31.1,21.0,40.8,18.1,0.9,97,61,33,30.08,29.56,6,1,13,0.01
2013-2-20,42.4,34.8,28.2,41.7,27.8,16.4,98,76,56,29.61,29.40,7,4,15,0.00
2013-2-21,32.5,26.6,21.8,25.8,16.8,9.6,81,67,52,30.10,29.62,9,4,21,0.00
2013-2-22,39.0,31.4,26.5,25.4,22.3,19.6,87,70,47,30.36,30.11,8,3,20,0.00
2013-2-23,37.9,31.9,26.5,32.3,28.4,21.7,94,87,70,30.34,30.01,2,0,6,0.00
2013-2-24,33.1,30.4,27.4,31.8,29.4,26.4,97,96,94,30.01,29.76,3,1,8,0.00
2013-2-25,37.5,29.8,25.5,32.6,27.1,24.0,96,90,70,30.23,29.88,3,0,11,0.00
2013-2-26,41.8,32.7,27.1,34.8,29.2,26.0,96,87,66,30.34,30.23,3,0,7,0.00
2013-2-27,37.6,32.9,28.5,33.8,31.0,27.3,98,93,81,30.23,29.65,8,3,22,0.00
2013-2-28,40.6,37.2,31.5,40.1,36.5,30.7,98,97,96,29.64,29.51,6,2,18,0.00
2013-3-1,33.5,32.1,31.2,31.7,30.5,29.6,97,94,90,29.64,29.50,6,3,14,0.00
2013-3-2,38.6,33.5,30.8,32.9,31.5,29.8,97,93,75,29.62,29.58,6,1,12,0.00
2013-3-3,40.7,35.8,32.2,35.1,32.0,28.0,98,87,74,29.58,29.49,4,1,8,0.00
2013-3-4,33.5,31.7,30.1,29.2,27.4,25.1,95,84,72,29.65,29.47,5,2,15,0.00
2013-3-5,43.8,36.9,30.4,35.4,33.3,29.1,96,87,68,30.09,29.65,8,4,18,0.00
2013-3-6,37.8,34.6,32.0,33.0,29.7,26.4,94,82,69,30.23,30.10,9,6,26,0.00
2013-3-7,36.3,33.6,30.3,27.4,25.7,24.6,89,73,63,30.18,30.04,11,8,27,0.00
2013-3-8,46.7,36.6,29.2,27.2,23.4,19.8,91,61,35,30.16,30.00,12,8,30,0.00
2013-3-9,47.0,35.6,28.0,28.7,23.9,19.8,86,64,34,30.36,30.16,9,3,20,0.00
2013-3-10,39.3,31.9,24.7,32.1,26.9,22.2,92,82,68,30.41,30.29,4,1,9,0.00
2013-3-11,41.2,38.5,35.6,39.3,35.8,32.1,95,90,84,30.30,30.15,5,2,12,0.00
2013-3-12,46.2,43.3,40.5,44.6,41.9,39.2,98,95,90,30.16,29.73,2,1,10,0.01
2013-3-13,48.2,43.4,35.0,47.2,38.8,27.9,98,85,61,29.73,29.63,6,2,14,0.00
2013-3-14,40.6,31.7,22.1,28.6,23.2,8.8,96,72,44,29.71,29.59,6,2,14,0.00
2013-3-15,35.0,25.2,17.3,21.0,11.5,6.0,84,57,34,29.77,29.59,6,3,19,0.00
2013-3-16,35.0,29.5,24.6,23.1,15.5,8.9,86,57,34,29.87,29.60,5,2,13,0.00
2013-3-17,30.5,24.9,19.2,12.7,7.0,-0.2,74,48,29,30.29,29.88,8,3,21,0.00
2013-3-18,35.2,25.7,17.2,21.1,7.9,-0.4,72,48,25,30.42,30.27,6,2,15,0.00
2013-3-19,32.1,28.1,23.4,28.8,25.3,20.4,96,90,65,30.26,29.61,7,3,23,0.00
2013-3-20,34.1,27.4,20.8,28.9,23.7,19.1,100,86,72,29.70,29.58,8,5,17,0.01
2013-3-21,37.6,31.0,25.4,26.1,21.8,14.6,94,70,40,29.75,29.58,8,2,21,0.00
2013-3-22,37.7,30.7,24.4,24.5,19.9,16.9,95,65,44,29.63,29.56,7,3,15,0.00
2013-3-23,39.9,33.0,26.7,25.0,21.2,17.1,76,62,47,29.63,29.46,11,6,23,0.00
2013-3-24,44.8,37.4,31.8,26.7,24.9,23.6,76,61,44,29.75,29.62,6,2,19,0.00
2013-3-25,44.2,35.5,28.7,32.7,27.7,24.7,88,74,56,29.75,29.56,5,2,13,0.00
2013-3-26,47.4,39.8,31.9,27.5,25.3,23.0,74,57,40,29.70,29.53,8,4,17,0.00
2013-3-27,44.0,37.8,32.1,37.6,31.2,25.2,96,78,57,29.83,29.68,6,2,17,0.01
2013-3-28,49.8,40.3,34.3,36.0,33.6,30.5,96,79,49,29.95,29.83,4,1,11,0.00
2013-3-29,55.1,44.0,35.1,37.1,32.2,29.2,90,65,39,29.99,29.91,5,1,15,0.00
2013-3-30,54.9,42.1,32.3,32.8,28.4,16.1,87,63,22,30.06,29.95,5,1,18,0.00
2013-3-31,50.1,39.5,27.0,38.6,29.3,20.5,93,70,35,30.10,29.84,3,1,9,0.00
2013-4-1,50.5,42.3,34.9,43.9,38.6,22.0,100,87,57,29.83,29.48,6,2,17,0.01
2013-4-2,36.9,32.3,27.9,22.5,15.2,8.9,67,50,32,29.81,29.66,10,5,26,0.00
2013-4-3,43.4,35.0,29.5,19.1,14.9,9.9,62,45,27,30.01,29.78,11,6,20,0.00
2013-4-4,48.1,38.3,30.5,35.3,20.9,7.7,82,52,19,30.19,29.95,7,4,17,0.00
2013-4-5,49.3,42.4,37.6,37.0,32.1,23.4,80,67,42,29.95,29.63,6,3,16,0.00
2013-4-6,39.7,33.1,27.0,23.8,9.6,4.1,59,39,24,30.33,29.79,7,4,22,0.00
2013-4-7,45.8,37.5,26.3,38.8,28.2,12.3,89,69,53,30.33,29.97,6,2,22,0.01
2013-4-8,59.1,47.7,39.4,40.0,36.8,34.1,93,69,41,30.12,29.88,7,2,22,0.00
2013-4-9,45.9,42.0,39.3,43.7,39.9,36.0,98,92,83,30.11,29.87,3,1,9,0.01
2013-4-10,51.4,43.8,39.6,46.9,42.1,38.3,98,94,83,29.98,29.87,5,0,10,0.00
2013-4-11,50.4,43.4,38.5,42.0,34.7,16.6,97,74,39,30.17,29.84,8,2,19,0.00
2013-4-12,38.4,35.1,33.2,33.8,25.4,15.5,100,70,42,30.24,29.87,5,2,19,0.00
2013-4-13,45.3,38.4,32.4,39.1,35.5,31.5,97,90,74,29.90,29.75,4,2,14,0.00
2013-4-14,50.7,41.8,36.0,41.6,38.8,34.4,97,90,60,30.16,29.88,4,1,11,0.02
2013-4-15,49.5,40.6,31.4,40.9,36.5,29.9,96,86,69,30.42,30.16,3,1,9,0.00
2013-4-16,50.6,44.7,37.8,46.7,41.1,36.5,97,88,71,30.41,29.95,7,3,21,0.00
2013-4-17,60.2,51.7,42.6,48.4,33.8,25.0,92,54,29,30.33,29.94,9,3,22,0.00
2013-4-18,46.9,42.0,32.3,40.7,31.8,23.7,86,68,43,30.46,30.18,3,1,8,0.00
2013-4-19,60.2,51.2,44.7,57.1,49.3,40.5,98,93,83,30.17,29.64,8,3,18,0.00
2013-4-20,55.2,50.8,44.0,52.0,41.3,25.3,98,74,40,30.12,29.56,10,4,19,0.01
2013-4-21,50.7,41.5,32.5,29.1,23.1,18.1,78,49,28,30.69,30.13,6,2,18,0.00
2013-4-22,49.0,38.4,28.7,36.9,26.8,16.8,91,65,32,30.80,30.64,6,1,14,0.00
2013-4-23,42.6,37.9,30.4,40.8,34.9,27.9,96,89,76,30.64,30.18,6,2,14,0.01
2013-4-24,59.4,47.2,41.3,51.7,44.9,40.2,97,92,74,30.17,29.76,7,4,16,0.00
2013-4-25,63.5,52.7,45.5,49.3,38.9,28.1,97,64,30,30.27,29.79,5,2,18,0.00
2013-4-26,55.4,45.8,34.7,38.3,32.5,28.3,91,62,36,30.43,30.27,5,1,13,0.00
2013-4-27,54.1,44.7,35.6,42.4,38.5,34.3,100,80,59,30.40,30.31,3,1,9,0.00
2013-4-28,61.6,47.8,35.4,44.8,38.7,34.4,98,74,41,30.33,30.25,5,1,8,0.00
2013-4-29,59.2,48.1,37.2,48.3,42.0,35.9,97,81,52,30.27,30.22,6,1,13,0.00
2013-4-30,63.1,49.5,37.5,47.6,40.6,35.3,98,75,40,30.36,30.24,4,1,9,0.00
2013-5-1,60.0,49.1,36.5,44.7,36.4,27.7,98,67,30,30.46,30.36,6,2,13,0.00
2013-5-2,57.8,48.1,41.5,49.5,40.5,33.7,98,77,42,30.51,30.40,5,1,15,0.00
2013-5-3,60.8,47.8,37.3,45.6,40.5,35.6,95,77,54,30.54,30.38,5,1,11,0.00
2013-5-4,55.5,45.5,37.8,43.2,39.4,36.2,97,81,58,30.39,30.33,4,1,9,0.00
2013-5-5,55.2,45.0,34.7,41.1,38.2,33.7,98,79,56,30.33,30.25,7,2,15,0.00
2013-5-6,58.5,46.8,38.4,48.1,42.6,37.4,98,86,64,30.28,30.17,6,1,15,0.00
2013-5-7,63.5,51.1,43.2,53.0,47.6,42.4,98,89,63,30.18,30.10,6,2,13,0.00
2013-5-8,69.4,57.6,49.2,60.4,54.3,48.4,98,89,72,30.24,30.11,4,1,10,0.07
2013-5-9,56.6,52.5,49.7,56.0,51.8,49.2,98,97,95,30.11,29.90,3,0,8,0.06
2013-5-10,64.1,53.7,48.6,58.4,52.0,48.1,99,94,80,29.96,29.88,6,1,10,0.00
2013-5-11,58.0,53.2,49.3,56.1,52.4,48.5,100,97,91,29.93,29.68,4,1,16,0.01
2013-5-12,63.5,55.4,49.9,60.3,53.1,44.1,99,92,73,29.70,29.52,7,1,13,0.00
2013-5-13,55.4,49.5,42.9,44.3,35.0,30.4,89,58,43,29.98,29.71,10,4,22,0.00
2013-5-14,55.2,47.8,42.3,42.2,35.0,29.4,89,63,39,30.01,29.93,6,2,14,0.00
2013-5-15,59.8,49.1,38.0,48.2,38.2,26.5,97,70,31,30.00,29.65,6,2,15,0.01
2013-5-16,76.5,59.4,46.6,55.7,47.6,39.8,98,70,27,29.76,29.55,7,2,17,0.00
2013-5-17,62.1,55.6,46.8,45.4,40.9,36.8,80,59,41,30.19,29.76,8,2,21,0.00
2013-5-18,57.9,49.7,40.4,46.1,42.8,38.9,96,78,57,30.34,30.18,4,1,9,0.00
2013-5-19,57.8,50.6,45.9,48.6,46.4,44.0,97,86,70,30.36,30.23,5,1,11,0.01
2013-5-20,67.9,56.0,49.1,61.8,54.0,48.3,98,93,80,30.22,29.91,4,1,8,0.00
2013-5-21,52.8,48.8,47.2,51.7,47.8,46.4,100,96,94,30.11,29.95,4,1,10,0.00
2013-5-22,52.8,49.4,47.3,51.1,48.5,46.8,98,97,93,30.06,29.90,3,1,9,0.00
2013-5-23,58.9,53.6,47.4,57.6,52.7,46.8,99,97,93,29.94,29.82,3,1,11,0.00
2013-5-24,61.1,56.2,49.6,60.8,55.7,48.8,99,98,96,29.82,29.63,9,3,15,0.00
2013-5-25,51.7,48.8,47.0,51.2,48.1,46.5,100,97,96,29.80,29.63,9,5,22,0.00
2013-5-26,55.1,49.0,45.1,47.7,45.0,39.8,98,87,65,29.95,29.57,6,3,15,0.00
2013-5-27,68.5,54.7,42.6,42.5,37.5,31.8,84,56,28,30.14,29.95,7,3,16,0.00
2013-5-28,68.8,54.7,40.3,46.2,41.6,37.1,100,66,32,30.23,30.15,6,1,14,0.00
2013-5-29,54.1,51.9,48.1,54.0,51.1,46.2,100,97,90,30.20,29.99,1,0,5,0.00
2013-5-30,78.2,64.9,51.6,66.4,59.2,51.1,99,84,59,30.01,29.95,5,1,11,0.00
2013-5-31,85.9,71.7,57.6,68.2,62.3,56.8,98,75,51,30.03,29.87,5,1,11,0.00
2013-6-1,85.0,71.8,61.3,70.2,63.4,59.6,96,76,57,29.90,29.79,4,1,12,0.00
2013-6-2,72.2,67.6,61.7,65.2,62.5,58.7,96,84,73,29.80,29.68,6,2,21,0.00
2013-6-3,68.7,61.8,56.6,64.3,59.6,55.8,98,93,80,29.81,29.70,5,1,12,0.00
2013-6-4,65.4,59.2,51.0,57.1,46.0,41.2,97,65,42,30.03,29.75,6,2,18,0.00
2013-6-5,66.2,58.0,47.8,50.6,45.3,38.7,86,64,37,30.15,30.03,5,2,14,0.00
2013-6-6,68.4,58.0,48.5,54.5,49.2,42.0,95,75,40,30.20,30.13,4,1,9,0.00
2013-6-7,57.8,54.3,51.7,52.6,50.3,45.4,97,87,67,30.14,29.91,4,1,10,0.00
2013-6-8,68.2,57.8,52.3,59.7,55.0,51.5,98,91,73,29.95,29.60,6,3,17,0.00
2013-6-9,68.5,61.2,56.7,60.1,57.2,55.0,97,87,73,30.13,29.96,5,1,11,0.00
2013-6-10,67.2,58.8,52.5,56.3,53.9,51.1,97,85,57,30.20,30.04,5,1,9,0.00
2013-6-11,55.7,53.6,52.6,54.3,52.8,51.5,98,97,95,30.05,29.51,7,2,20,0.00
2013-6-12,59.4,56.3,53.0,57.4,54.9,52.5,98,95,88,29.73,29.48,8,3,18,0.00
2013-6-13,69.4,58.4,51.8,56.4,53.1,49.3,97,83,52,29.77,29.72,3,1,9,0.00
2013-6-14,69.1,58.5,52.4,58.1,53.9,51.4,97,85,62,29.73,29.65,5,1,11,0.00
2013-6-15,76.7,62.2,50.6,53.0,48.1,41.3,97,65,29,29.88,29.72,5,1,13,0.00
2013-6-16,73.5,61.2,50.3,57.0,52.9,48.6,95,76,47,29.88,29.69,4,1,10,0.00
2013-6-17,75.9,64.1,56.1,64.7,59.4,54.7,97,86,61,29.85,29.70,7,1,16,0.00
2013-6-18,66.3,60.3,55.3,58.4,55.3,49.9,98,84,61,29.96,29.82,2,0,8,0.00
2013-6-19,73.7,62.2,51.1,55.8,50.0,42.6,97,69,35,30.11,29.90,5,2,13,0.00
2013-6-20,73.6,61.2,49.2,56.0,51.3,47.1,95,73,45,30.23,30.11,5,1,12,0.00
2013-6-21,76.4,64.2,53.6,59.4,55.5,50.4,97,76,41,30.21,30.16,5,1,11,0.00
2013-6-22,78.2,65.3,57.5,64.5,60.5,56.1,96,85,53,30.18,30.09,5,1,12,0.00
2013-6-23,74.2,65.5,60.9,66.3,62.6,59.5,97,91,74,30.13,29.94,4,1,10,0.00
2013-6-24,91.5,75.3,64.5,73.8,68.0,63.6,98,81,48,29.94,29.79,4,1,11,0.00
2013-6-25,85.6,74.6,64.8,70.9,67.2,63.7,97,79,53,29.83,29.68,5,1,18,0.00
2013-6-26,75.8,64.9,57.0,71.7,63.3,56.1,99,95,84,29.88,29.67,4,1,14,0.00
2013-6-27,62.9,56.8,53.4,59.1,55.5,52.6,98,95,87,29.88,29.81,4,1,10,0.00
2013-6-28,64.1,59.2,55.1,63.8,58.7,54.5,99,98,97,29.81,29.53,6,2,14,0.00
2013-6-29,66.5,63.1,61.0,66.2,62.6,60.7,99,98,93,29.69,29.54,5,1,16,0.00
2013-6-30,75.3,66.7,61.7,70.1,64.7,61.1,99,94,83,29.92,29.69,5,1,13,0.00
2013-7-1,76.3,67.1,62.4,70.8,65.7,61.2,99,96,82,30.08,29.92,3,0,9,0.00
2013-7-2,65.2,61.3,57.6,64.6,60.7,56.8,99,98,96,30.21,30.06,4,1,9,0.00
2013-7-3,75.4,63.3,57.1,68.3,61.2,56.7,99,94,75,30.19,30.09,3,1,7,0.00
2013-7-4,86.6,73.0,61.3,74.7,68.5,60.7,99,87,64,30.15,30.02,4,1,10,0.00
2013-7-5,87.3,77.0,67.7,74.4,70.5,66.5,98,82,60,30.09,29.97,5,1,11,0.00
2013-7-6,86.5,77.5,69.8,74.0,70.6,63.5,98,81,59,30.00,29.89,3,1,7,0.00
2013-7-7,88.3,77.8,67.2,71.5,66.3,61.4,83,69,47,29.94,29.87,5,1,12,0.00
2013-7-8,75.3,69.7,63.4,69.4,65.0,59.7,97,86,63,30.07,29.88,5,1,9,0.00
2013-7-9,66.3,63.0,59.9,65.1,61.6,59.2,98,95,89,30.11,30.05,3,0,7,0.00
2013-7-10,67.4,62.5,59.1,67.1,61.4,58.5,99,96,88,30.08,29.76,2,0,8,0.00
2013-7-11,79.8,70.5,66.4,72.3,68.5,65.8,99,94,69,29.94,29.73,3,0,6,0.00
2013-7-12,79.9,69.3,60.2,66.5,59.5,56.5,92,72,53,30.20,29.94,5,2,12,0.00
2013-7-13,77.4,67.3,57.0,64.4,60.3,55.9,97,80,56,30.31,30.20,4,1,10,0.00
2013-7-14,86.0,73.7,62.9,70.5,66.2,61.7,98,79,56,30.27,30.16,5,1,11,0.00
2013-7-15,90.2,76.8,65.4,71.1,67.5,63.1,97,76,42,30.16,30.04,4,1,9,0.00
2013-7-16,90.2,77.9,69.4,72.3,68.0,65.1,91,73,50,30.15,30.06,4,1,10,0.00
2013-7-17,79.7,72.2,66.4,69.7,67.1,64.5,96,84,71,30.16,29.92,5,2,14,0.00
2013-7-18,85.4,74.4,68.0,72.3,68.0,59.2,98,83,42,29.99,29.90,4,1,11,0.00
2013-7-19,88.0,76.9,68.1,75.9,70.9,66.9,97,83,62,29.93,29.62,5,1,11,0.00
2013-7-20,85.2,77.7,70.3,72.6,69.3,64.7,91,76,61,29.75,29.58,5,2,13,0.00
2013-7-21,75.8,68.4,60.7,64.3,59.1,52.4,93,74,46,30.01,29.76,4,1,8,0.00
2013-7-22,72.8,65.8,60.1,63.7,59.9,54.4,97,83,53,30.03,29.91,2,0,8,0.00
2013-7-23,68.3,64.3,61.4,67.7,63.6,60.0,98,98,94,29.91,29.51,2,0,7,0.00
2013-7-24,79.3,68.5,59.1,73.0,64.1,52.6,99,87,65,29.95,29.55,5,1,14,0.00
2013-7-25,71.5,62.2,55.5,60.6,55.2,48.8,96,79,61,30.10,29.95,5,2,16,0.00
2013-7-26,66.7,63.7,60.9,64.9,62.3,60.0,100,95,91,30.06,29.86,6,3,17,0.00
2013-7-27,78.5,69.2,62.2,67.2,63.3,60.8,97,83,61,30.02,29.89,5,1,9,0.00
2013-7-28,68.4,64.1,61.2,66.2,62.9,60.3,98,96,92,30.04,29.99,4,1,10,0.00
2013-7-29,72.4,64.5,60.4,67.4,63.0,59.8,98,95,82,30.06,29.99,4,0,9,0.00
2013-7-30,78.0,67.5,60.2,65.6,62.3,58.5,99,85,55,30.05,29.99,4,1,8,0.00
2013-7-31,76.7,66.4,56.1,62.0,59.0,55.3,97,79,54,30.10,30.03,5,1,13,0.00
2013-8-1,76.8,67.2,59.2,68.8,63.7,58.3,98,89,74,30.04,29.87,3,0,9,0.00
2013-8-2,75.0,65.6,62.2,69.3,64.1,61.3,99,95,80,29.87,29.74,3,0,6,0.00
2013-8-3,75.7,65.2,59.0,65.0,61.5,58.0,99,89,68,29.81,29.71,4,1,13,0.00
2013-8-4,77.7,64.3,55.8,62.6,58.4,54.7,97,83,49,29.81,29.71,4,1,10,0.00
2013-8-5,73.1,62.5,54.3,55.5,51.9,46.4,91,70,46,30.01,29.81,6,1,18,0.00
2013-8-6,75.8,62.8,50.3,55.5,51.7,46.7,91,69,46,30.14,30.01,4,1,11,0.00
2013-8-7,74.4,63.6,52.5,65.1,59.1,51.4,98,86,63,30.18,30.11,2,0,8,0.00
2013-8-8,71.5,64.7,60.2,68.0,62.9,58.6,98,94,87,30.12,30.00,4,0,9,0.00
2013-8-9,69.6,66.2,65.1,69.0,65.5,64.2,99,98,96,30.01,29.70,3,1,13,0.00
2013-8-10,80.5,70.2,58.6,68.7,59.4,49.0,99,73,36,29.97,29.71,6,1,14,0.00
2013-8-11,75.6,63.9,51.9,58.1,53.7,50.0,95,72,45,30.03,29.96,4,1,11,0.00
2013-8-12,74.9,66.0,56.6,61.7,58.6,55.2,97,78,57,29.99,29.89,6,1,13,0.00
2013-8-13,72.0,64.8,57.5,66.2,62.1,56.1,98,91,81,29.89,29.68,4,0,12,0.00
2013-8-14,76.8,66.4,60.5,66.6,59.2,48.9,98,80,46,29.86,29.59,5,1,15,0.00
2013-8-15,73.7,63.5,54.2,58.3,53.6,49.6,92,72,47,30.06,29.86,4,1,11,0.00
2013-8-16,74.0,63.1,53.5,60.6,56.0,52.4,98,80,49,30.16,30.05,5,1,14,0.00
2013-8-17,77.3,64.3,55.0,61.3,56.5,53.7,97,78,46,30.25,30.16,5,1,12,0.00
2013-8-18,74.1,63.9,53.6,61.9,57.7,52.4,97,81,54,30.25,30.03,4,1,8,0.00
2013-8-19,80.1,69.4,58.1,64.4,61.3,57.1,97,77,56,30.03,29.87,5,1,11,0.00
2013-8-20,82.1,71.4,62.4,66.5,62.5,59.9,93,75,56,30.05,29.92,5,1,10,0.00
2013-8-21,81.7,70.7,61.0,67.0,63.1,59.6,97,79,55,30.10,29.96,5,1,13,0.00
2013-8-22,82.9,71.4,61.6,68.3,65.0,60.2,96,81,60,29.97,29.74,4,1,10,0.00
2013-8-23,77.1,69.3,58.8,66.0,56.7,49.4,92,67,40,30.12,29.74,7,2,17,0.00
2013-8-24,77.7,62.8,50.1,55.0,49.6,45.5,93,65,32,30.28,30.12,3,1,9,0.00
2013-8-25,75.6,63.1,50.9,60.3,54.2,49.2,96,75,48,30.34,30.13,6,1,14,0.00
2013-8-26,76.8,65.9,59.4,66.5,61.5,57.4,96,86,69,30.12,29.85,5,1,11,0.01
2013-8-27,81.4,69.3,60.6,67.8,63.9,59.5,98,84,62,29.89,29.82,4,0,5,0.00
2013-8-28,76.6,65.8,61.3,66.6,62.4,60.0,98,89,68,29.98,29.86,4,1,10,0.00
2013-8-29,68.4,63.7,55.4,63.4,59.8,53.6,98,87,75,30.08,29.97,6,2,16,0.00
2013-8-30,74.0,64.0,54.2,65.1,59.8,52.9,97,87,72,30.01,29.75,7,1,13,0.00
2013-8-31,80.0,69.7,64.0,70.5,66.2,62.4,97,89,68,29.81,29.74,5,1,10,0.00
2013-9-1,80.1,71.4,66.7,72.2,68.3,65.5,99,91,73,29.90,29.74,2,0,6,0.01
2013-9-2,68.6,64.7,60.3,68.3,64.0,59.7,99,98,96,29.90,29.72,4,1,12,0.00
2013-9-3,74.8,67.9,64.6,69.6,66.5,63.7,99,96,83,29.75,29.68,5,1,11,0.00
2013-9-4,76.4,67.2,59.5,63.8,60.2,57.2,97,80,59,29.87,29.72,5,1,13,0.00
2013-9-5,65.4,58.9,51.1,59.6,53.1,45.0,96,82,51,30.12,29.83,5,1,11,0.00
2013-9-6,66.6,55.2,43.8,54.2,45.7,37.2,97,73,37,30.20,30.02,5,1,12,0.00
2013-9-7,70.3,60.9,50.5,59.1,54.1,48.8,96,80,51,30.02,29.78,5,1,10,0.00
2013-9-8,65.1,59.5,48.9,59.2,50.2,40.3,97,73,44,30.05,29.69,6,2,16,0.00
2013-9-9,62.3,54.6,44.8,54.1,46.9,41.0,90,76,51,30.19,30.05,5,1,15,0.00
2013-9-10,63.7,60.5,56.9,60.9,57.5,53.2,97,90,84,30.11,30.01,4,1,11,0.00
2013-9-11,84.6,69.8,60.8,73.6,66.3,59.9,99,89,67,30.03,29.87,10,1,11,0.00
2013-9-12,71.2,65.8,62.2,68.4,64.9,61.3,98,97,90,29.97,29.64,4,0,10,0.00
2013-9-13,68.7,63.4,58.6,67.2,62.7,57.8,99,98,91,29.69,29.56,7,1,13,0.00
2013-9-14,68.1,60.9,54.6,58.7,56.1,50.2,97,85,67,30.00,29.68,4,1,8,0.00
2013-9-15,64.3,56.4,47.9,55.7,51.3,46.9,97,84,61,30.11,29.98,5,1,13,0.00
2013-9-16,65.0,55.8,46.0,56.2,51.5,37.6,96,86,69,30.23,29.95,6,1,17,0.00
2013-9-17,65.0,50.8,40.0,49.8,41.6,36.4,94,73,45,30.39,30.24,5,2,13,0.00
2013-9-18,68.8,54.6,43.9,54.1,47.7,43.1,98,80,52,30.28,30.08,5,1,10,0.00
2013-9-19,72.7,57.8,46.7,53.8,49.7,45.9,98,78,45,30.11,30.01,4,1,10,0.00
2013-9-20,73.3,58.8,48.1,57.3,52.2,47.0,97,81,51,30.09,30.01,2,0,6,0.00
2013-9-21,65.7,60.1,55.1,61.1,58.1,54.3,98,93,83,30.02,29.76,4,1,12,0.00
2013-9-22,68.3,62.6,52.8,63.3,58.8,47.5,98,88,71,29.75,29.58,5,1,16,0.00
2013-9-23,56.2,51.4,47.1,47.6,42.4,39.7,83,72,60,29.92,29.73,6,2,17,0.00
2013-9-24,54.8,50.8,47.9,44.7,42.7,40.1,83,74,65,29.91,29.81,5,2,17,0.00
2013-9-25,60.6,53.6,46.1,49.7,45.9,42.9,89,76,60,29.95,29.84,6,2,12,0.00
2013-9-26,63.4,54.6,45.8,51.4,48.1,43.9,94,79,64,30.11,29.95,6,2,18,0.00
2013-9-27,70.2,59.6,52.1,55.6,52.2,50.2,95,78,55,30.23,30.11,4,1,7,0.00
2013-9-28,69.1,56.2,48.8,57.2,51.5,47.4,96,85,61,30.32,30.23,2,0,7,0.00
2013-9-29,64.1,52.7,46.9,55.2,49.9,45.9,98,91,69,30.26,30.12,4,1,9,0.00
2013-9-30,63.0,51.8,42.1,53.7,48.7,41.3,98,90,69,30.13,29.95,3,0,9,0.00
2013-10-1,74.1,58.0,45.8,57.0,50.8,45.0,100,80,47,29.95,29.80,5,1,11,0.00
2013-10-2,76.9,62.3,50.8,62.5,55.7,49.7,98,80,59,29.87,29.73,3,1,8,0.00
2013-10-3,73.7,60.7,49.8,52.0,49.5,47.2,93,69,43,30.04,29.87,5,1,11,0.00
2013-10-4,68.4,57.4,47.4,54.3,50.5,46.3,97,80,54,30.07,30.00,2,0,5,0.00
2013-10-5,61.9,55.4,48.5,51.8,47.8,42.4,95,76,49,30.13,30.06,2,0,5,0.00
2013-10-6,54.6,50.4,46.3,48.7,44.1,38.7,96,80,56,30.27,30.13,3,1,12,0.00
2013-10-7,64.5,58.4,49.2,64.1,57.7,47.8,99,98,95,30.20,29.78,7,1,22,0.00
2013-10-8,61.2,54.6,42.2,60.4,45.7,39.6,98,74,49,30.37,29.81,5,2,19,0.00
2013-10-9,60.3,47.3,38.6,45.3,40.5,37.3,100,80,48,30.47,30.36,4,0,9,0.00
2013-10-10,60.5,48.5,39.1,50.7,44.8,38.1,98,88,65,30.35,30.18,3,0,7,0.00
2013-10-11,67.1,53.9,44.8,56.2,49.9,44.0,98,88,59,30.18,30.11,1,0,5,0.00
2013-10-12,58.0,53.7,50.1,52.3,49.7,46.6,97,87,73,30.41,30.16,5,1,15,0.00
2013-10-13,58.7,51.2,41.8,48.7,45.7,40.5,95,83,58,30.46,30.38,2,0,8,0.00
2013-10-14,57.5,49.0,39.2,50.1,45.1,38.4,98,87,69,30.38,30.24,5,1,15,0.00
2013-10-15,64.9,56.6,52.1,54.9,52.0,50.2,95,85,67,30.27,30.20,4,0,9,0.00
2013-10-16,58.1,55.3,53.2,55.3,53.4,51.7,97,93,84,30.20,29.89,4,0,9,0.00
2013-10-17,66.3,56.6,51.6,59.1,54.2,50.8,98,92,77,29.88,29.70,3,1,11,0.00
2013-10-18,66.6,58.3,52.2,58.4,52.0,46.1,99,81,50,29.81,29.56,5,2,17,0.00
2013-10-19,60.4,52.7,42.7,51.3,46.2,40.6,94,79,62,29.92,29.74,4,1,10,0.00
2013-10-20,60.9,55.0,48.1,53.1,42.9,32.8,96,67,36,29.93,29.65,7,2,18,0.00
2013-10-21,59.1,50.1,39.6,50.4,42.4,37.0,94,76,50,30.07,29.93,4,1,10,0.00
2013-10-22,59.7,54.4,45.7,53.6,51.0,44.1,95,88,77,29.97,29.67,5,1,13,0.00
2013-10-23,51.6,44.0,36.0,43.8,39.0,34.9,98,84,56,29.75,29.57,2,0,6,0.00
2013-10-24,50.9,44.8,36.0,39.6,32.9,28.0,90,64,43,29.80,29.57,9,3,22,0.00
2013-10-25,48.8,42.5,34.8,35.3,31.9,28.6,87,67,49,30.07,29.80,5,2,17,0.00
2013-10-26,51.2,42.6,30.3,39.0,33.7,28.3,95,72,51,30.09,29.86,8,2,21,0.00
2013-10-27,54.5,46.4,41.6,42.4,37.7,29.2,96,73,50,29.99,29.76,6,2,22,0.00
2013-10-28,53.1,43.3,35.9,39.6,32.5,24.7,86,66,50,30.32,29.99,7,2,19,0.00
2013-10-29,46.9,35.1,27.5,29.7,25.8,19.8,92,71,35,30.43,30.32,3,0,10,0.01
2013-10-30,48.7,36.9,29.9,34.1,30.3,25.9,96,80,43,30.33,30.15,6,0,10,0.00
2013-10-31,55.5,44.5,30.1,54.9,42.8,28.8,98,94,83,30.23,29.78,4,1,11,0.00
2013-11-1,54.9,54.9,54.8,54.3,54.2,54.0,98,98,97,29.77,29.73,3,2,15,0.00
2013-11-4,40.1,33.2,27.6,25.1,20.9,17.2,90,62,42,30.69,30.59,5,2,14,0.01
2013-11-5,47.0,36.7,26.6,38.3,30.6,21.7,92,79,62,30.70,30.49,4,0,12,0.00
2013-11-6,53.0,47.8,40.3,50.1,43.8,37.3,93,86,77,30.48,29.98,6,2,15,0.00
2013-11-7,57.8,51.4,40.3,55.6,47.8,30.4,96,88,66,29.98,29.61,5,3,20,0.00
2013-11-8,44.3,39.4,35.5,31.2,26.4,24.3,72,60,47,29.96,29.74,7,3,16,0.00
2013-11-9,43.6,37.2,29.7,29.1,23.9,21.0,89,60,41,30.09,29.96,6,2,17,0.00
2013-11-10,44.2,39.5,32.2,42.4,37.5,28.4,96,92,81,30.06,29.69,2,0,8,0.00
2013-11-11,46.7,41.6,37.5,37.6,32.8,29.2,95,72,57,30.00,29.72,7,2,13,0.00
2013-11-12,46.4,34.8,29.1,34.4,22.5,16.5,72,61,53,30.08,29.80,8,4,20,0.00
2013-11-13,34.4,29.2,25.2,19.6,15.1,12.9,65,56,42,30.20,30.07,6,2,16,0.01
2013-11-14,46.6,37.1,30.7,32.5,25.9,20.0,90,65,46,30.07,29.97,6,2,13,0.01
2013-11-15,50.6,39.8,29.6,40.5,32.0,27.0,95,77,40,30.15,30.05,4,1,10,0.00
2013-11-16,51.8,40.1,33.0,44.1,36.3,31.5,96,87,65,30.32,30.15,3,0,5,0.00
2013-11-17,51.3,44.8,34.7,50.5,43.0,33.7,98,94,82,30.33,29.92,1,0,6,0.00
2013-11-18,60.4,53.7,47.2,56.8,48.9,36.5,98,85,55,29.90,29.46,8,2,24,0.00
2013-11-19,49.7,38.1,31.8,37.5,23.4,17.6,68,55,46,30.17,29.54,7,4,23,0.00
2013-11-20,38.7,31.8,26.0,21.5,15.4,10.3,83,52,31,30.61,30.17,5,2,22,0.01
2013-11-21,43.4,33.8,23.7,29.7,22.7,14.6,90,66,33,30.62,30.32,3,0,7,0.00
2013-11-22,39.8,36.4,33.0,35.2,30.6,24.1,95,80,59,30.31,29.75,2,0,7,0.00
2013-11-23,41.1,36.2,27.0,39.8,25.1,14.6,96,66,36,29.77,29.64,8,4,21,0.00
2013-11-24,26.8,22.5,19.1,24.5,8.4,3.3,91,55,42,29.98,29.65,11,6,29,0.00
2013-11-25,34.3,23.3,17.3,23.0,5.8,0.5,65,47,32,30.30,29.98,7,3,24,0.00
2013-11-26,35.2,32.0,28.1,31.1,27.0,18.0,96,83,52,30.29,30.14,7,2,21,0.00
2013-11-27,57.9,48.3,32.2,57.3,47.6,31.2,98,97,93,30.13,29.10,7,2,20,0.00
2013-11-28,37.7,31.5,24.9,35.5,19.4,6.9,92,62,39,30.31,29.26,9,4,23,0.00
2013-12-2,43.9,38.4,35.9,43.4,37.8,35.4,98,98,97,29.96,29.89,3,1,4,0.00
2013-12-3,40.0,36.1,33.0,38.7,35.1,30.4,98,96,90,29.90,29.82,6,2,11,0.00
2013-12-4,41.4,34.5,28.3,30.4,28.1,25.8,92,78,61,30.19,29.85,4,1,9,0.00
2013-12-5,48.1,38.0,27.3,47.6,36.6,25.8,98,95,89,30.24,29.89,2,0,3,0.00
2013-12-6,47.9,42.7,37.5,47.4,40.5,28.9,98,92,68,30.09,29.82,4,1,8,0.00
2013-12-7,37.3,32.8,25.3,30.2,20.9,9.5,86,63,44,30.40,30.04,5,2,12,0.00
2013-12-8,27.5,25.4,23.9,16.9,11.3,7.9,72,55,43,30.56,30.39,4,1,10,0.00
2013-12-9,36.8,29.1,23.6,36.0,23.7,10.8,97,82,56,30.52,29.82,4,2,6,0.00
2013-12-10,32.9,27.7,22.2,31.9,26.2,18.4,97,94,84,29.88,29.70,3,0,6,0.00
2013-12-11,28.9,24.4,17.1,20.6,17.7,14.9,92,76,60,30.11,29.89,9,4,14,0.00
2013-12-12,21.3,16.4,11.0,15.7,4.2,-2.9,80,59,41,30.22,29.98,10,2,24,0.00
2013-12-13,23.1,17.7,6.8,12.0,6.0,-4.5,73,60,46,30.36,29.88,10,5,18,0.00
2013-12-14,12.9,8.1,3.3,9.9,-13.2,-99.9,89,52,40,30.61,30.37,6,-103,9,0.00
2013-12-15,17.9,12.7,11.8,16.0,-1.2,-99.9,92,80,89,30.36,29.36,12,-116,19,0.00
2013-12-16,23.3,14.9,6.7,17.8,-4.3,-99.9,94,63,44,30.18,29.64,10,-116,12,0.00
2013-12-17,14.9,8.5,2.0,11.4,-12.5,-99.9,91,62,56,30.30,30.01,4,-145,10,0.00
2013-12-18,26.4,16.6,11.8,23.6,2.1,-99.9,95,80,85,30.00,29.82,8,-124,19,0.00
2013-12-19,33.5,27.5,20.8,27.4,24.1,18.6,95,87,75,30.07,29.90,6,2,14,0.00
2013-12-20,35.7,13.3,27.1,34.7,-42.5,-99.9,97,42,92,30.11,29.88,0,-552,3,0.00
2013-12-21,36.8,25.1,32.3,36.3,-3.3,-99.9,98,70,97,29.93,29.81,2,-279,6,0.00
2013-12-22,34.0,15.6,26.6,33.4,-32.7,-99.9,98,50,96,30.07,29.86,5,-478,12,0.00
2013-12-23,32.2,14.5,26.9,31.7,-38.5,-99.9,98,46,97,30.09,29.94,0,-527,0,0.00
2013-12-24,26.5,14.7,14.6,24.8,-20.3,-99.9,93,60,86,30.15,30.04,0,-333,0,0.00
2013-12-25,17.7,10.6,7.9,13.7,-9.0,-99.9,92,71,79,30.54,30.15,0,-166,0,0.00
2013-12-26,34.0,18.9,12.4,33.2,1.0,-99.9,97,78,90,30.50,30.05,0,-166,0,0.00
2013-12-27,30.6,20.4,17.0,28.6,-1.8,-99.9,100,72,83,30.18,30.10,0,-201,0,0.00
2013-12-28,35.2,24.0,20.3,30.3,4.3,-99.9,97,74,81,30.15,29.92,0,-176,0,0.00
2013-12-29,38.7,27.6,25.2,37.9,13.0,-99.9,98,83,95,30.01,29.48,5,-138,11,0.00
2013-12-30,30.8,17.2,7.6,27.4,-4.3,-99.9,96,69,71,30.16,29.47,7,-178,17,0.00
2013-12-31,11.2,6.4,2.8,5.7,-12.0,-99.9,91,68,66,30.17,30.03,4,-139,16,0.00
2014-1-1,20.4,11.3,5.2,11.4,-9.7,-99.9,91,63,54,30.39,30.10,7,-151,16,0.00
2014-1-2,8.0,-1.7,-6.9,0.2,-19.9,-99.9,84,68,67,30.43,29.98,9,-134,21,0.00